Mackinac Island, MI

1:41 AM EDT on May 28, 2018 (GMT -0400)
Mackinac Island

Weather History for KMCD - February, 2014

Change the Weather History Date:

Tuesday, February 25, 2014

  Actual Average Record
Temperature  
Mean Temperature 6 °F -  
Max Temperature 13 °F 26 °F 44 °F (2001)
Min Temperature -1 °F 15 °F -14 °F (1990)
Degree Days  
Heating Degree Days 59    
Moisture  
Dew Point 2 °F    
Average Humidity 78    
Maximum Humidity 90    
Minimum Humidity 55    
Precipitation  
Precipitation 0.00 in - - ()
Sea Level Pressure  
Sea Level Pressure 29.98 in    
Wind  
Wind Speed 10 mph (West)    
Max Wind Speed 20 mph    
Max Gust Speed 24 mph    
Visibility 7 miles    
Events Snow    
Averages and records for this station are not official NWS values.
T = Trace of Precipitation, MM = Missing Value Source: NWS Daily Summary

Daily Weather History Graph

Daily Weather History Graph

Search for Another Location

Airport or City:

Astronomy

Feb. 25, 2014 Rise Set
Actual Time 7:24 AM EST 6:19 PM EST
Civil Twilight 6:54 AM EST 6:49 PM EST
Nautical Twilight 6:19 AM EST 7:24 PM EST
Astronomical Twilight 5:45 AM EST 7:58 PM EST
Moon 4:27 AM EST (2/25) 2:15 PM EST (2/25)
Length of Visible Light 11h 55m
Length of Day
10h 55m
Waning Crescent, 18% of the Moon is Illuminated
Feb 25
Waning Crescent
Mar 1
New
Mar 8
First Quarter
Mar 16
Full
Mar 23
Last Quarter

Hourly Weather History & Observations

Time (EST) Temp. Windchill Dew Point Humidity Pressure Visibility Wind Dir Wind Speed Gust Speed Precip Events Conditions
12:16 AM 8.1 °F -4.3 °F 4.5 °F 85% 30.08 in 7.0 mi WNW 8.1 mph - N/A   Overcast
12:37 AM 8.1 °F -4.3 °F 4.6 °F 86% 30.08 in 7.0 mi West 8.1 mph - N/A   Overcast
12:57 AM 8.1 °F -5.3 °F 5.0 °F 87% 30.07 in 3.0 mi West 9.2 mph - N/A Snow Light Snow
1:17 AM 8.1 °F -3.2 °F 5.0 °F 87% 30.07 in 5.0 mi West 6.9 mph - N/A Snow Light Snow
1:37 AM 8.1 °F -3.2 °F 5.2 °F 88% 30.07 in 10.0 mi West 6.9 mph - N/A Snow Light Snow
1:57 AM 8.2 °F -5.1 °F 5.4 °F 88% 30.07 in 4.0 mi West 9.2 mph - N/A Snow Light Snow
2:17 AM 8.2 °F -5.1 °F 5.0 °F 87% 30.07 in 5.0 mi West 9.2 mph - N/A Snow Light Snow
2:37 AM 8.2 °F -5.1 °F 5.4 °F 88% 30.07 in 4.0 mi West 9.2 mph - N/A Snow Light Snow
2:57 AM 8.4 °F -5.7 °F 5.5 °F 88% 30.06 in 4.0 mi West 10.4 mph - N/A Snow Light Snow
3:17 AM 8.1 °F -4.3 °F 5.4 °F 89% 30.05 in 5.0 mi West 8.1 mph - N/A   Overcast
3:37 AM 7.3 °F -2.8 °F 4.8 °F 89% 30.04 in 10.0 mi WSW 5.8 mph - N/A Snow Light Snow
3:57 AM 6.8 °F -3.5 °F 4.5 °F 90% 30.04 in 10.0 mi SW 5.8 mph - N/A Snow Light Snow
4:17 AM 6.6 °F -3.7 °F 4.1 °F 89% 30.03 in 10.0 mi SW 5.8 mph - N/A Snow Light Snow
4:37 AM 7.2 °F -3.0 °F 4.6 °F 89% 30.03 in 10.0 mi WSW 5.8 mph - N/A   Overcast
4:57 AM 7.3 °F -2.8 °F 4.5 °F 88% 30.03 in 10.0 mi WSW 5.8 mph - N/A Snow Light Snow
5:17 AM 7.5 °F -2.6 °F 4.6 °F 88% 30.03 in 5.0 mi SW 5.8 mph - N/A Snow Light Snow
5:37 AM 7.7 °F -0.9 °F 5.0 °F 89% 30.03 in 5.0 mi WSW 4.6 mph - N/A Snow Light Snow
5:57 AM 8.1 °F -4.3 °F 5.5 °F 89% 30.02 in 5.0 mi SW 8.1 mph - N/A Snow Light Snow
6:17 AM 8.4 °F -2.8 °F 5.7 °F 89% 30.02 in 7.0 mi WSW 6.9 mph - N/A Snow Light Snow
6:37 AM 8.6 °F -2.6 °F 5.9 °F 89% 30.02 in 5.0 mi SW 6.9 mph - N/A Snow Light Snow
6:57 AM 9.0 °F -5.1 °F 6.1 °F 88% 30.02 in 5.0 mi SW 10.4 mph - N/A Snow Light Snow
7:17 AM 9.0 °F -4.2 °F 5.9 °F 87% 30.01 in 3.0 mi WSW 9.2 mph - N/A Snow Light Snow
7:38 AM 9.3 °F -3.8 °F 6.8 °F 89% 30.01 in 1.5 mi WSW 9.2 mph - N/A Snow Light Snow
7:57 AM 9.3 °F -6.1 °F 6.8 °F 89% 30.01 in 2.0 mi WSW 12.7 mph 16.1 mph N/A Snow Light Snow
8:17 AM 9.3 °F -4.6 °F 6.8 °F 89% 30.01 in 2.5 mi WSW 10.4 mph - N/A Snow Light Snow
8:38 AM 9.3 °F -3.8 °F 6.4 °F 88% 30.00 in 3.0 mi WSW 9.2 mph - N/A Snow Light Snow
8:57 AM 9.5 °F -0.3 °F 6.6 °F 88% 30.00 in 2.5 mi WSW 5.8 mph - N/A Snow Light Snow
9:18 AM 10.0 °F -6.5 °F 6.6 °F 86% 30.00 in 2.5 mi West 15.0 mph - N/A Snow Light Snow
9:37 AM 9.9 °F -4.7 °F 5.9 °F 84% 30.00 in 10.0 mi West 11.5 mph - N/A Snow Light Snow
9:57 AM 9.5 °F -6.6 °F 5.5 °F 84% 30.00 in 3.0 mi West 13.8 mph - N/A Snow Light Snow
10:18 AM 9.5 °F -7.2 °F 5.4 °F 83% 29.99 in 5.0 mi West 15.0 mph - N/A   Overcast
10:37 AM 10.8 °F -4.3 °F 5.9 °F 81% 29.98 in 7.0 mi West 12.7 mph - N/A   Overcast
10:57 AM 11.5 °F -2.7 °F 5.7 °F 78% 29.98 in 10.0 mi West 11.5 mph - N/A   Overcast
11:18 AM 12.0 °F -2.7 °F 5.9 °F 76% 29.97 in 2.0 mi West 12.7 mph 17.3 mph N/A Snow Light Snow
11:37 AM 12.0 °F -0.4 °F 6.1 °F 77% 29.97 in 4.0 mi West 9.2 mph - N/A   Haze
11:57 AM 12.0 °F -3.4 °F 5.9 °F 76% 29.96 in 10.0 mi West 13.8 mph - N/A   Overcast
12:17 PM 11.8 °F -1.5 °F 6.4 °F 79% 29.96 in 2.5 mi West 10.4 mph - N/A Snow Light Snow
12:37 PM 11.7 °F -0.9 °F 6.8 °F 81% 29.95 in 3.0 mi WSW 9.2 mph - N/A Snow Light Snow
12:58 PM 11.3 °F -1.3 °F 6.3 °F 80% 29.95 in 2.0 mi WSW 9.2 mph - N/A Snow Light Snow
1:17 PM 11.3 °F -3.6 °F 6.3 °F 80% 29.94 in 2.0 mi West 12.7 mph 18.4 mph N/A Snow Light Snow
1:37 PM 11.7 °F -3.2 °F 7.5 °F 83% 29.93 in 1.2 mi WSW 12.7 mph 21.9 mph N/A Snow Light Snow
1:58 PM 11.3 °F -2.2 °F 5.5 °F 78% 29.92 in 1.8 mi WSW 10.4 mph 19.6 mph N/A Snow Light Snow
2:17 PM 11.3 °F -2.9 °F 5.9 °F 79% 29.92 in 1.8 mi WSW 11.5 mph 21.9 mph N/A Snow Light Snow
2:38 PM 11.8 °F -4.8 °F 4.8 °F 73% 29.92 in 4.0 mi West 16.1 mph 21.9 mph N/A   Haze
2:57 PM 12.0 °F -6.0 °F 4.1 °F 71% 29.91 in 7.0 mi West 19.6 mph - N/A   Mostly Cloudy
3:17 PM 13.5 °F -3.7 °F 4.1 °F 66% 29.92 in 10.0 mi West 18.4 mph - N/A   Overcast
3:38 PM 13.5 °F -3.7 °F 2.5 °F 62% 29.92 in 10.0 mi West 18.4 mph - N/A   Overcast
3:57 PM 13.6 °F -0.7 °F 1.4 °F 58% 29.92 in 10.0 mi WNW 12.7 mph - N/A   Overcast
4:17 PM 10.9 °F -4.7 °F 3.0 °F 70% 29.92 in 5.0 mi NW 13.8 mph 21.9 mph N/A   Haze
4:38 PM 10.0 °F -4.5 °F 3.4 °F 74% 29.93 in 4.0 mi NW 11.5 mph 18.4 mph N/A   Haze
4:57 PM 9.1 °F -5.6 °F 3.4 °F 77% 29.93 in 2.5 mi NW 11.5 mph 19.6 mph N/A   Haze
5:18 PM 9.7 °F -4.2 °F 1.9 °F 71% 29.93 in 7.0 mi NW 10.4 mph 16.1 mph N/A   Overcast
5:38 PM 8.2 °F -8.8 °F -3.6 °F 58% 29.93 in 10.0 mi WNW 15.0 mph 24.2 mph N/A   Overcast
5:57 PM 6.8 °F -10.0 °F -6.3 °F 55% 29.94 in 10.0 mi WNW 13.8 mph 20.7 mph N/A   Overcast
6:18 PM 5.4 °F -12.5 °F -6.5 °F 58% 29.95 in 10.0 mi NW 15.0 mph 23.0 mph N/A   Overcast
6:38 PM 4.5 °F -11.5 °F -6.7 °F 60% 29.95 in 10.0 mi NW 11.5 mph 18.4 mph N/A   Overcast
6:57 PM 3.9 °F -12.2 °F -6.7 °F 61% 29.95 in 10.0 mi NW 11.5 mph 21.9 mph N/A   Mostly Cloudy
7:18 PM 3.2 °F -12.2 °F -6.0 °F 66% 29.96 in 10.0 mi WNW 10.4 mph 19.6 mph N/A   Mostly Cloudy
7:37 PM 2.8 °F -12.7 °F -5.8 °F 67% 29.96 in 10.0 mi NW 10.4 mph 17.3 mph N/A   Mostly Cloudy
7:57 PM 2.7 °F -15.3 °F -6.2 °F 67% 29.96 in 10.0 mi WNW 13.8 mph 17.3 mph N/A   Mostly Cloudy
8:18 PM 2.3 °F -15.7 °F -7.2 °F 64% 29.96 in 10.0 mi NW 13.8 mph 23.0 mph N/A   Scattered Clouds
8:37 PM 2.1 °F -17.9 °F -7.6 °F 64% 29.96 in 10.0 mi WNW 17.3 mph 24.2 mph N/A   Scattered Clouds
8:57 PM 1.9 °F -16.9 °F -7.6 °F 64% 29.96 in 10.0 mi WNW 15.0 mph 21.9 mph N/A   Clear
9:17 PM 1.4 °F -16.1 °F -7.2 °F 67% 29.96 in 10.0 mi West 12.7 mph 19.6 mph N/A   Clear
9:37 PM 1.2 °F -16.4 °F -6.5 °F 70% 29.96 in 10.0 mi West 12.7 mph 20.7 mph N/A   Mostly Cloudy
9:58 PM 0.9 °F -17.6 °F -5.6 °F 74% 29.97 in 10.0 mi West 13.8 mph 18.4 mph N/A   Overcast
10:17 PM 0.7 °F -17.0 °F -6.5 °F 72% 29.96 in 10.0 mi West 12.7 mph - N/A   Mostly Cloudy
10:37 PM 0.1 °F -17.7 °F -6.9 °F 72% 29.96 in 10.0 mi West 12.7 mph 17.3 mph N/A   Scattered Clouds
10:57 PM -0.6 °F -20.8 °F -8.0 °F 71% 29.95 in 10.0 mi West 16.1 mph - N/A   Clear
11:17 PM -0.9 °F -21.2 °F -8.3 °F 71% 29.95 in 10.0 mi West 16.1 mph 21.9 mph N/A   Clear
11:37 PM -1.1 °F -20.8 °F -8.5 °F 71% 29.95 in 10.0 mi West 15.0 mph 19.6 mph N/A   Scattered Clouds
11:57 PM -1.5 °F -19.8 °F -8.7 °F 71% 29.95 in 10.0 mi West 12.7 mph 20.7 mph N/A   Scattered Clouds